Change the Weather History Date:

Thursday, August 8, 2013

  Actual Average Record
Temperature  
Mean Temperature 69 °F 69 °F  
Max Temperature 76 °F 78 °F 97 °F (1930)
Min Temperature 62 °F 60 °F 46 °F (1903)
Degree Days  
Heating Degree Days 0 1  
Month to date heating degree days 13 4  
Since 1 June heating degree days 99 91  
Since 1 July heating degree days 36 17  
Cooling Degree Days 4 4  
Month to date cooling degree days 12 39  
Year to date cooling degree days 283 282  
Since 1 June cooling degree days 242 264  
Growing Degree Days 19 (Base 50)    
Moisture  
Dew Point 66 °F    
Average Humidity 86    
Maximum Humidity 97    
Minimum Humidity 74    
Precipitation  
Precipitation 2.64 in 0.13 in 2.64 in (2013)
Month to date precipitation 3.91 0.98  
Year to date precipitation 23.30 21.47  
Sea Level Pressure  
Sea Level Pressure 30.03 in    
Wind  
Wind Speed 7 mph (South)    
Max Wind Speed 13 mph    
Max Gust Speed 18 mph    
Visibility 6 miles    
Events Fog , Rain , Thunderstorm    
T = Trace of Precipitation, MM = Missing Value Source: NWS Daily Summary

Daily Weather History Graph

Daily Weather History Graph

Search for Another Location

Airport or City:

Trip Planner

Search our weather history database for the weather conditions in past years. The results will help you decide how hot, cold, wet, or windy it might be!

Date:

Astronomy

Aug. 08, 2013 Rise Set
Actual Time 6:19 AM EDT 8:21 PM EDT
Civil Twilight 5:50 AM EDT 8:51 PM EDT
Nautical Twilight 5:13 AM EDT 9:27 PM EDT
Astronomical Twilight 4:34 AM EDT 10:06 PM EDT
Moon 8:05 AM EDT (8/8) 8:58 PM EDT (8/8)
Length of Visible Light 15h 01m
Length of Day
14h 01m
Waxing Crescent, 3% of the Moon is Illuminated
Aug 8
Waxing Crescent
Aug 14
First Quarter
Aug 20
Full
Aug 28
Last Quarter
Sep 5
New

Hourly Weather History & Observations

Time (EDT) Temp. Dew Point Humidity Pressure Visibility Wind Dir Wind Speed Gust Speed Precip Events Conditions
12:54 AM 63.0 °F 60.1 °F 90% 30.03 in 10.0 mi SSW 4.6 mph - N/A   Clear
1:54 AM 63.0 °F 60.1 °F 90% 30.01 in 10.0 mi South 4.6 mph - N/A   Clear
2:54 AM 63.0 °F 60.1 °F 90% 30.01 in 10.0 mi SSW 5.8 mph - N/A   Clear
3:54 AM 63.0 °F 61.0 °F 93% 30.01 in 10.0 mi SW 4.6 mph - N/A   Partly Cloudy
4:11 AM 64.4 °F 60.8 °F 88% 30.04 in 10.0 mi South 4.6 mph - N/A   Mostly Cloudy
4:54 AM 64.9 °F 62.1 °F 90% 30.01 in 10.0 mi SSW 5.8 mph - N/A   Overcast
5:30 AM 64.4 °F 62.6 °F 94% 30.04 in 10.0 mi South 6.9 mph - N/A   Mostly Cloudy
5:54 AM 64.9 °F 62.1 °F 90% 30.01 in 10.0 mi South 3.5 mph - N/A   Overcast
6:03 AM 64.4 °F 62.6 °F 94% 30.05 in 10.0 mi South 3.5 mph - N/A   Overcast
6:54 AM 64.9 °F 62.1 °F 90% 30.02 in 10.0 mi South 5.8 mph - N/A   Scattered Clouds
7:54 AM 66.9 °F 63.0 °F 87% 30.04 in 10.0 mi South 5.8 mph - N/A   Partly Cloudy
8:39 AM 68.0 °F 64.4 °F 88% 30.06 in 10.0 mi South 4.6 mph - N/A   Mostly Cloudy
8:54 AM 69.1 °F 64.0 °F 84% 30.04 in 10.0 mi South 5.8 mph - N/A   Mostly Cloudy
9:18 AM 69.8 °F 64.4 °F 83% 30.06 in 9.0 mi South 4.6 mph - 0.00 in   Overcast
9:50 AM 69.8 °F 64.4 °F 83% 30.07 in 10.0 mi SSW 5.8 mph - 0.00 in Rain Light Rain
9:54 AM 70.0 °F 64.0 °F 81% 30.04 in 10.0 mi SW 4.6 mph - 0.00 in Rain Light Rain
10:29 AM 71.6 °F 64.4 °F 78% 30.07 in 10.0 mi SW 4.6 mph - 0.00 in Rain Light Rain
10:54 AM 72.0 °F 64.9 °F 78% 30.03 in 10.0 mi SSW 5.8 mph - 0.00 in   Partly Cloudy
11:17 AM 73.4 °F 66.2 °F 78% 30.07 in 10.0 mi SSW 5.8 mph - N/A   Mostly Cloudy
11:34 AM 73.4 °F 66.2 °F 78% 30.07 in 10.0 mi SW 5.8 mph - N/A   Mostly Cloudy
11:54 AM 73.9 °F 66.0 °F 76% 30.03 in 10.0 mi South 5.8 mph - N/A   Scattered Clouds
12:52 PM 75.2 °F 66.2 °F 73% 30.06 in 10.0 mi SSW 5.8 mph - N/A   Mostly Cloudy
12:54 PM 75.9 °F 66.0 °F 71% 30.02 in 10.0 mi SW 4.6 mph - N/A   Overcast
1:08 PM 75.2 °F 64.4 °F 69% 30.06 in 10.0 mi SSW 3.5 mph - N/A   Overcast
1:39 PM 75.2 °F 66.2 °F 73% 30.06 in 10.0 mi SSW 6.9 mph - N/A Thunderstorm Overcast
1:54 PM 75.9 °F 66.0 °F 71% 30.01 in 7.0 mi South 8.1 mph - 0.01 in Rain , Thunderstorm Light Rain
2:05 PM 73.4 °F 68.0 °F 83% 30.06 in 1.8 mi WSW 8.1 mph - 0.05 in Rain , Thunderstorm Thunderstorms and Rain
2:24 PM 71.6 °F 69.8 °F 94% 30.05 in 0.5 mi Calm Calm - 0.21 in Fog , Rain Heavy Rain
2:36 PM 71.6 °F 69.8 °F 94% 30.05 in 2.0 mi Calm Calm - 0.24 in Rain Light Rain
2:46 PM 73.4 °F 68.0 °F 83% 30.05 in 6.0 mi SE 4.6 mph - 0.25 in Rain Light Rain
2:51 PM 73.4 °F 69.8 °F 88% 30.05 in 2.5 mi SE 8.1 mph - 0.28 in Rain , Thunderstorm Heavy Rain
2:54 PM 72.0 °F 69.1 °F 91% 30.01 in 2.0 mi SE 8.1 mph - 0.28 in Rain , Thunderstorm Rain
3:04 PM 71.6 °F 69.8 °F 94% 30.04 in 3.0 mi ESE 3.5 mph - 0.01 in Rain Rain
3:12 PM 71.6 °F 69.8 °F 94% 30.05 in 4.0 mi SE 4.6 mph - 0.02 in Rain , Thunderstorm Light Rain
3:17 PM 71.6 °F 69.8 °F 94% 30.05 in 2.5 mi SE 12.7 mph 18.4 mph 0.05 in Rain , Thunderstorm Light Thunderstorms and Rain
3:21 PM 69.8 °F 66.2 °F 88% 30.05 in 1.0 mi SE 9.2 mph 18.4 mph 0.14 in Rain , Thunderstorm Heavy Thunderstorms and Rain
3:29 PM 68.0 °F 66.2 °F 94% 30.05 in 0.5 mi SE 6.9 mph - 0.33 in Fog , Rain , Thunderstorm Heavy Thunderstorms and Rain
3:38 PM 68.0 °F 66.2 °F 94% 30.05 in 0.5 mi ESE 4.6 mph - 0.52 in Fog , Rain , Thunderstorm Heavy Rain
3:47 PM 68.0 °F 66.2 °F 94% 30.05 in 1.0 mi SE 5.8 mph - 0.60 in Rain Heavy Rain
3:52 PM 68.0 °F 66.2 °F 94% 30.04 in 1.0 mi SE 6.9 mph - 0.69 in Rain , Thunderstorm Heavy Thunderstorms and Rain
3:54 PM 68.0 °F 66.0 °F 93% 30.01 in 0.8 mi SSE 8.1 mph - 0.75 in Rain , Thunderstorm Heavy Thunderstorms and Rain
4:04 PM 69.8 °F 66.2 °F 88% 30.04 in 1.0 mi SSE 6.9 mph - 0.11 in Rain , Thunderstorm Heavy Thunderstorms and Rain
4:17 PM 69.8 °F 66.2 °F 88% 30.04 in 0.8 mi SSE 6.9 mph - 0.29 in Rain , Thunderstorm Heavy Thunderstorms and Rain
4:33 PM 69.8 °F 66.2 °F 88% 30.04 in 0.5 mi South 8.1 mph - 0.62 in Fog , Rain , Thunderstorm Heavy Thunderstorms and Rain
4:44 PM 69.8 °F 66.2 °F 88% 30.04 in 0.2 mi South 9.2 mph - 0.97 in Fog , Rain Heavy Rain
4:54 PM 69.1 °F 66.9 °F 93% 30.00 in 0.2 mi SE 8.1 mph - 1.31 in Fog , Rain Heavy Rain
4:58 PM 69.8 °F 66.2 °F 88% 30.03 in 0.5 mi SSE 8.1 mph - 0.07 in Fog , Rain , Thunderstorm Heavy Rain
5:09 PM 69.8 °F 66.2 °F 88% 30.03 in 1.8 mi SE 3.5 mph - 0.13 in Rain , Thunderstorm Light Rain
5:11 PM 69.8 °F 66.2 °F 88% 30.03 in 4.0 mi SSE 5.8 mph - 0.13 in Rain , Thunderstorm Light Rain
5:21 PM 69.8 °F 66.2 °F 88% 30.03 in 3.0 mi SSE 6.9 mph - 0.14 in Rain Rain
5:29 PM 69.8 °F 68.0 °F 94% 30.03 in 2.5 mi SSE 6.9 mph - 0.15 in Rain Rain
5:44 PM 69.8 °F 68.0 °F 94% 30.03 in 4.0 mi SSE 9.2 mph - 0.17 in Rain Light Rain
5:54 PM 70.0 °F 68.0 °F 93% 29.99 in 6.0 mi SSE 10.4 mph - 0.17 in Rain Light Rain
6:54 PM 70.0 °F 68.0 °F 93% 29.99 in 7.0 mi South 10.4 mph - N/A   Scattered Clouds
7:28 PM 69.8 °F 68.0 °F 94% 30.04 in 3.0 mi SSW 11.5 mph 18.4 mph 0.02 in Rain Light Rain
7:33 PM 69.8 °F 68.0 °F 94% 30.04 in 1.8 mi SSW 9.2 mph 18.4 mph 0.04 in Rain Heavy Rain
7:41 PM 69.8 °F 66.2 °F 88% 30.04 in 2.5 mi SSW 10.4 mph - 0.05 in Rain Rain
7:54 PM 69.1 °F 66.9 °F 93% 30.00 in 4.0 mi SSW 9.2 mph - 0.06 in Rain Light Rain
8:54 PM 68.0 °F 66.0 °F 93% 30.00 in 7.0 mi South 11.5 mph - 0.01 in Rain Light Rain
9:34 PM 68.0 °F 66.2 °F 94% 30.04 in 7.0 mi Calm Calm - 0.04 in Rain Light Rain
9:46 PM 68.0 °F 66.2 °F 94% 30.03 in 8.0 mi Calm Calm - 0.04 in   Overcast
9:54 PM 68.0 °F 66.0 °F 93% 30.00 in 9.0 mi South 4.6 mph - 0.04 in   Overcast
10:49 PM 68.0 °F 66.2 °F 94% 30.03 in 9.0 mi South 8.1 mph - N/A   Overcast
10:54 PM 68.0 °F 66.0 °F 93% 29.99 in 6.0 mi South 9.2 mph - 0.00 in Rain Light Rain
11:54 PM 68.0 °F 66.0 °F 93% 29.96 in 10.0 mi South 5.8 mph - 0.01 in   Overcast